Quick 2-Day View
   Show 7 Days         For Information Regarding the Accuracy of This Data:  MesoWest Disclaimer

OBS:OAKLAND NORTHWeather Conditions for:
OAKLAND NORTH, CA (ONOC1)

Elev: 1403 ft; Latitude: 37.8650; Longitude: -122.2208

Current time:Wed, 02 Nov 12:19 pm (PDT)
Most Recent Observation:Wed, 02 Nov 11:33 am PDT (PDT)
TimeTemp.DewRelativeWindWindFuelFuelSolarSolarPrecipPrecipPrecipPrecipQuality
PointHumidityDirectionSpeedTempMoisture Radiation PctAccumulated1 hour6 hour24 hourControl
(PDT)(f)(f)(%)(mph)(f)(%)(W/m*m)of psbl(inches)(inches)(inches)(inches)
02 Nov 11:33 am PDT601416ENE15G2772448963%26.05OK
02 Nov 10:33 am PDT581216NE20G3266429751%26.05OK
02 Nov 9:33 am PDT561016ENE20G3162417354%26.05OK
02 Nov 8:33 am PDT55815NE22G3353429152%26.05OK
02 Nov 7:33 am PDT54614NE20G315141--26.05OK
02 Nov 6:33 am PDT55714NE22G325241--26.05OK
02 Nov 5:33 am PDT55714NE21G335241--26.05OK
02 Nov 4:33 am PDT56714NE17G325241--26.05OK
02 Nov 3:33 am PDT56714NE12G295341--26.05OK
02 Nov 2:33 am PDT58914ENE18G315441--26.05OK
02 Nov 1:33 am PDT59813NE18G415641--26.05OK
02 Nov 12:33 am PDT61410NE23G385841--26.05OK
01 Nov 11:33 pm PDT62711NE27G435941--26.05OK
01 Nov 10:33 pm PDT62711NE26G506041--26.05OK
01 Nov 9:33 pm PDT63811NE25G486041--26.05OK
01 Nov 8:33 pm PDT63811NE28G426041--26.05OK
01 Nov 7:33 pm PDT631012NE24G416041--26.05OK
01 Nov 6:33 pm PDT631113NNE18G346041923%26.05OK
01 Nov 5:33 pm PDT651313NNE17G3364416343%26.05OK
01 Nov 4:33 pm PDT651615NE22G4068534455%26.05OK
01 Nov 3:33 pm PDT662017NE21G3771546657%26.05OK
01 Nov 2:33 pm PDT652018NE24G3872559464%26.05OK
01 Nov 1:33 pm PDT642119NE18G3076663966%26.05OK
01 Nov 12:33 pm PDT622221ENE18G3468762568%26.05OK
01 Nov 11:33 am PDT612828NE15G2571749863%26.05OK
01 Nov 10:33 am PDT583034ENE9G2469932355%26.05OK
01 Nov 9:33 am PDT552835NE17G2861917654%26.05OK
01 Nov 8:33 am PDT543039NE21G2954939159%26.05OK
01 Nov 7:33 am PDT532939NE19G255091--26.05OK
01 Nov 6:33 am PDT543141NE18G255091--26.05OK
01 Nov 5:33 am PDT553648NE18G2652101--26.05OK
01 Nov 4:33 am PDT574156NE14G1952101--26.05OK
01 Nov 3:33 am PDT594866NE13G2055101--26.05OK
01 Nov 2:33 am PDT614760NE15G195791--26.05OK
01 Nov 1:33 am PDT624963NE9G145891--26.05OK
01 Nov 12:33 am PDT645061NEG135891--26.05OK
31 Oct 11:33 pm PDT624963NNW5G105881--26.05OK
31 Oct 10:33 pm PDT644857WSWG075981--26.05OK
31 Oct 9:33 pm PDT644958WSW3G055981--26.05OK
31 Oct 8:33 pm PDT655161WSWG076071--26.05OK
31 Oct 7:33 pm PDT665056WNW3G066171--26.05OK
31 Oct 6:33 pm PDT675361NW4G086461820%26.05
31 Oct 5:33 pm PDT735146NNWG0773515340%26.05OK
31 Oct 4:33 pm PDT735146N1G0681531950%26.05OK
31 Oct 3:33 pm PDT734943NE3G1488546557%26.05OK
31 Oct 2:33 pm PDT724843ENE8G1788556660%26.05OK
31 Oct 1:33 pm PDT714641ENE9G1890661363%26.05OK
31 Oct 12:33 pm PDT714946ENE5G1384759865%26.05OK
31 Oct 11:33 am PDT695050E6G1185747860%26.05OK
31 Oct 10:33 am PDT685154ENE4G0783831053%26.05OK
31 Oct 9:33 am PDT694847ESEG0677917051%26.05OK
31 Oct 8:33 am PDT654651ENE4G12621044146%26.05OK
31 Oct 7:33 am PDT634755NE8G105682--26.05OK
31 Oct 6:33 am PDT644856NNE2G085881--26.05OK
31 Oct 5:33 am PDT654651NNW5G086181--26.05OK